[[{"header":{"parameterUnit":"m.s-1","parameterCategory":1,"la1":30.2991,"la2":30.254,"lo1":-89.0895,"lo2":-89.0444,"dy":0.0017,"dx":0.0017,"nx":28,"ny":28,"refTime":"2024-04-12T09:00:00:Z","depth":0,"parameterNumber":2,"parameterNumberName":"U-component_of_WINDS"},"data":[0,0,0,0,0,0,0,0,0,0,0,0,0,0,0,0,0,0,0,0,0,0,0,0,0,0,0,0,0,0,0,0,0,0,0,0,0,0,0,0,0,0,0,0,0,0,0,0,0,0,0,0,0,0,0,0,0,0,0.7027,0.7027,0,0.7037,0.7037,0.7037,0.7028,0.7028,0.7027,0.7027,0.7037,0.7038,0.7039,0,0,0,0,0,0,0,0,0,0,0,0,0,0.7,0.7001,0.7027,0.7027,0.7027,0.7037,0.7037,0.7038,0.7028,0.7028,0.7027,0.7027,0.7037,0.7038,0.7039,0,0,0,0,0,0,0,0,0,0,0,0,0,0.7011,0.7001,0.7027,0.7024,0.7024,0.7037,0.7037,0.7038,0.7028,0.7028,0.7027,0.7027,0.7037,0.7038,0.7039,0.7056,0,0,0.7042,0.7042,0,0,0,0,0,0,0,0,0.7011,0.7012,0.7024,0.7024,0.7024,0.7031,0.7032,0.7044,0.7028,0.7027,0.7027,0.7026,0.7036,0.7037,0.704,0.7056,0.7057,0.7042,0.7042,0.7043,0.7043,0,0,0,0,0,0,0,0.701,0.7012,0.7031,0.7024,0.7024,0.7022,0.7023,0.7034,0.7034,0.7027,0.7026,0.7027,0.7035,0.7039,0.704,0.7057,0.7042,0.7043,0.7043,0.7043,0.7089,0.709,0,0,0,0,0,0,0.7009,0.7011,0.7031,0.7031,0.7016,0.7023,0.7024,0.7029,0.7034,0.7034,0.7028,0.7027,0.7038,0.7039,0.704,0.7061,0.7043,0.7044,0.7044,0.7089,0.709,0.709,0,0,0,0,0,0,0.7009,0.7011,0.703,0.7021,0.7023,0.7024,0.703,0.703,0.7033,0.7035,0.7035,0.7031,0.7037,0.7039,0.7052,0.7062,0.7044,0.7045,0.7088,0.7089,0.709,0.7103,0,0,0,0,0,0,0.7008,0.7011,0.7017,0.7021,0.7024,0.7042,0.703,0.703,0.7035,0.7034,0.7038,0.7038,0.7037,0.7051,0.7053,0.7063,0.7046,0.7087,0.7089,0.709,0.7102,0.7105,0.7107,0,0,0,0,0,0.7007,0.702,0.7018,0.702,0.7032,0.7042,0.7044,0.7042,0.7036,0.7042,0.7043,0.7038,0.706,0.7052,0.7055,0.7065,0.7087,0.7088,0.709,0.7101,0.7104,0.7107,0,0,0,0,0,0,0.7017,0.7021,0.7018,0.7033,0.7037,0.7041,0.7049,0.7045,0.7052,0.7051,0.7048,0.7049,0.7064,0.7065,0.7057,0.7082,0.7072,0.7075,0.708,0.7083,0.7086,0.7085,0.7046,0,0,0,0,0,0.7021,0.7029,0.7032,0.7045,0.7048,0.7048,0.7053,0.7051,0.7056,0.7058,0.706,0.7065,0.7073,0.7078,0.7086,0.7103,0.7104,0.7111,0.7113,0.7115,0.7117,0.7127,0.713,0.7095,0.7095,0.7095,0,0,0.7029,0.7032,0.7037,0.7047,0.705,0.706,0.705,0.7059,0.7066,0.7059,0.7072,0.7074,0.7079,0.7095,0.7102,0.7097,0.7127,0.7117,0.7118,0.7119,0.7129,0.7132,0.7135,0.7096,0.7096,0.7096,0,0,0.7048,0.7051,0.7063,0.7067,0.7072,0.7073,0.7076,0.708,0.7081,0.7094,0.7089,0.7098,0.7112,0.7116,0.712,0.7143,0.7138,0.7145,0.7158,0.7168,0.717,0.7173,0.7181,0.7184,0.7147,0.7147,0.7147,0,0.7057,0.7071,0.7069,0.7079,0.7084,0.7079,0.7091,0.7095,0.7102,0.7106,0.7101,0.7119,0.7122,0.7139,0.7145,0.7148,0.7151,0.7145,0.717,0.7172,0.7175,0.7183,0.7186,0.7148,0.7148,0.7148,0.7148,0,0.7082,0.7092,0.71,0.7108,0.7114,0.7125,0.7126,0.7132,0.713,0.7131,0.7145,0.7149,0.7158,0.7162,0.716,0.7179,0.7176,0.717,0.716,0.7179,0.7187,0.719,0.7149,0.7149,0.7149,0.7148,0,0,0.7107,0.7115,0.7118,0.7122,0.7129,0.7136,0.7148,0.7157,0.7162,0.7168,0.7178,0.7191,0.7186,0.7191,0.7189,0.7198,0.7217,0.7191,0.7192,0.7196,0.7239,0.7243,0.7247,0.7214,0.7215,0.7215,0.7238,0,0.7127,0.7146,0.7146,0.7164,0.7174,0.7169,0.7179,0.7185,0.7187,0.7195,0.7197,0.7206,0.7199,0.7202,0.721,0.7213,0.7225,0.7211,0.7224,0.7224,0.7222,0.725,0.7255,0.7276,0.7241,0.7242,0.7242,0,0.7152,0.716,0.7179,0.7186,0.7189,0.7198,0.7207,0.7215,0.7222,0.7222,0.7228,0.7226,0.7238,0.7229,0.7246,0.7236,0.7241,0.7243,0.7244,0.7245,0.7234,0.7253,0.7283,0.7287,0.7247,0.7247,0.7246,0,0.7169,0.7184,0.7198,0.7201,0.7209,0.7216,0.7219,0.7225,0.7231,0.7239,0.7243,0.7252,0.7257,0.7264,0.7264,0.7257,0.7282,0.7272,0.7283,0.7283,0.7288,0.7288,0.7321,0.7292,0.7292,0.7292,0.7292,0,0.7191,0.7203,0.7205,0.7214,0.7228,0.7228,0.7242,0.7244,0.725,0.726,0.7256,0.7265,0.7266,0.7275,0.7275,0.729,0.7292,0.7294,0.7294,0.7294,0.7294,0.7297,0.7296,0.7293,0.7292,0.7292,0.7292,0,0.7211,0.7213,0.7228,0.7235,0.7237,0.7247,0.7253,0.7261,0.7263,0.7275,0.7278,0.7281,0.7292,0.7294,0.7306,0.7307,0.7325,0.7323,0.7322,0.7322,0.7334,0.7333,0.7369,0.7374,0.7342,0.7343,0.7343,0,0.7225,0.7235,0.7243,0.7249,0.7253,0.7263,0.7269,0.727,0.7277,0.7286,0.7293,0.7304,0.7313,0.733,0.7334,0.7344,0.7343,0.7355,0.7344,0.7345,0.7343,0.7343,0.7344,0.7357,0.7357,0.7358,0.7358,0,0.725,0.7251,0.726,0.727,0.7278,0.7285,0.7293,0.7298,0.73,0.7307,0.7319,0.7326,0.7339,0.735,0.7361,0.7364,0.7362,0.7361,0.7365,0.7365,0.7364,0.7365,0.7328,0.736,0.736,0.736,0.736,0.736,0.7268,0.7277,0.7284,0.7295,0.73,0.7308,0.7316,0.732,0.7329,0.7341,0.7341,0.7353,0.7361,0.7374,0.7379,0.739,0.7385,0.739,0.7391,0.7392,0.7394,0.7363,0.7391,0.7391,0.7391,0.7391,0.7391,0,0.7293,0.7298,0.7308,0.7318,0.7327,0.7324,0.7333,0.734,0.7351,0.7359,0.7368,0.7381,0.7392,0.7397,0.7408,0.7416,0.7415,0.7419,0.7418,0.7419,0.7396,0.7393,0.7419,0.7419,0.7419,0.7419,0.7419,0.7419,0.7307,0.7322,0.7324,0.7342,0.7347,0.7359,0.7364,0.7371,0.7377,0.7393,0.7402,0.7406,0.7412,0.7424,0.7434,0.7436,0.744,0.7444,0.7445,0.7424,0.7421,0.7418,0.7414,0.7445,0.7445,0.7467,0.7467,0.7468]},{"header":{"parameterUnit":"m.s-1","parameterCategory":1,"la1":30.2991,"la2":30.254,"lo1":-89.0895,"lo2":-89.0444,"dy":0.0017,"dx":0.0017,"nx":28,"ny":28,"refTime":"2024-04-12T09:00:00:Z","depth":0,"parameterNumber":3,"parameterNumberName":"V-component_of_WINDS"},"data":[0,0,0,0,0,0,0,0,0,0,0,0,0,0,0,0,0,0,0,0,0,0,0,0,0,0,0,0,0,0,0,0,0,0,0,0,0,0,0,0,0,0,0,0,0,0,0,0,0,0,0,0,0,0,0,0,0,0,-2.313,-2.3131,0,-2.3233,-2.3234,-2.3236,-2.3239,-2.3238,-2.3237,-2.3235,-2.334,-2.3344,-2.3348,0,0,0,0,0,0,0,0,0,0,0,0,0,-2.2934,-2.2938,-2.3129,-2.3131,-2.3132,-2.3233,-2.3234,-2.3236,-2.3239,-2.3238,-2.3236,-2.3235,-2.3339,-2.3344,-2.3349,0,0,0,0,0,0,0,0,0,0,0,0,0,-2.3027,-2.2939,-2.3129,-2.3146,-2.3148,-2.3233,-2.3235,-2.3236,-2.324,-2.3238,-2.3236,-2.3234,-2.3338,-2.3343,-2.3349,-2.3424,0,0,-2.3367,-2.337,0,0,0,0,0,0,0,0,-2.3021,-2.3034,-2.3142,-2.3145,-2.3148,-2.3221,-2.3204,-2.3299,-2.324,-2.3205,-2.3235,-2.3233,-2.3302,-2.3311,-2.3335,-2.3428,-2.3433,-2.3368,-2.3372,-2.3374,-2.3376,0,0,0,0,0,0,0,-2.3015,-2.3029,-2.317,-2.3144,-2.3147,-2.3148,-2.3159,-2.3222,-2.3263,-2.3208,-2.3208,-2.3221,-2.3303,-2.3329,-2.3337,-2.3434,-2.3368,-2.3373,-2.3377,-2.3379,-2.3596,-2.3598,0,0,0,0,0,0,-2.3005,-2.3024,-2.3167,-2.3174,-2.3079,-2.3153,-2.3166,-2.32,-2.3262,-2.327,-2.3222,-2.322,-2.332,-2.333,-2.3341,-2.3433,-2.3374,-2.338,-2.3383,-2.3594,-2.3596,-2.3599,0,0,0,0,0,0,-2.3001,-2.3018,-2.3163,-2.3099,-2.3118,-2.3159,-2.3197,-2.3203,-2.3228,-2.3273,-2.328,-2.3241,-2.3318,-2.3332,-2.3403,-2.3436,-2.3382,-2.3388,-2.3591,-2.3595,-2.3598,-2.3617,0,0,0,0,0,0,-2.2995,-2.3016,-2.3045,-2.31,-2.3121,-2.3224,-2.3199,-2.3206,-2.3238,-2.3237,-2.3292,-2.3299,-2.3318,-2.3394,-2.3409,-2.3444,-2.3392,-2.3588,-2.3593,-2.3597,-2.3613,-2.362,-2.3626,0,0,0,0,0,-2.2988,-2.3046,-2.3046,-2.3064,-2.3158,-2.3226,-2.3238,-2.3258,-2.3241,-2.327,-2.3299,-2.3298,-2.343,-2.3402,-2.3418,-2.3455,-2.3586,-2.3591,-2.3596,-2.361,-2.3619,-2.3626,0,0,0,0,0,0,-2.2993,-2.3053,-2.3055,-2.3131,-2.3174,-2.3226,-2.3264,-2.3267,-2.3314,-2.3311,-2.3334,-2.3347,-2.3417,-2.3443,-2.341,-2.3531,-2.3506,-2.3515,-2.3511,-2.352,-2.3526,-2.3518,-2.3397,0,0,0,0,0,-2.3003,-2.3054,-2.3103,-2.3166,-2.3188,-2.3222,-2.3252,-2.3265,-2.3309,-2.3327,-2.3361,-2.3404,-2.3456,-2.3489,-2.3539,-2.3617,-2.3629,-2.3651,-2.3657,-2.3662,-2.3669,-2.3713,-2.3724,-2.3615,-2.3615,-2.3615,0,0,-2.3024,-2.3063,-2.3094,-2.3168,-2.3202,-2.3255,-2.3237,-2.3292,-2.3331,-2.3335,-2.3405,-2.3431,-2.3481,-2.3556,-2.3591,-2.358,-2.3702,-2.3668,-2.3672,-2.3676,-2.372,-2.373,-2.3739,-2.3618,-2.3618,-2.3617,0,0,-2.309,-2.3124,-2.3181,-2.3216,-2.3268,-2.3291,-2.3304,-2.3357,-2.3375,-2.3446,-2.345,-2.3497,-2.3584,-2.362,-2.365,-2.373,-2.3731,-2.3746,-2.3779,-2.3822,-2.3831,-2.3838,-2.3868,-2.3878,-2.3752,-2.3753,-2.3753,0,-2.3109,-2.3188,-2.3209,-2.3265,-2.3298,-2.3305,-2.3363,-2.3396,-2.3462,-2.3484,-2.3471,-2.3583,-2.3616,-2.37,-2.372,-2.3744,-2.376,-2.3739,-2.3828,-2.3836,-2.3843,-2.3871,-2.3882,-2.3754,-2.3754,-2.3754,-2.3754,0,-2.321,-2.3264,-2.3304,-2.3368,-2.3405,-2.3462,-2.3492,-2.3528,-2.3537,-2.3561,-2.3633,-2.3674,-2.3733,-2.3754,-2.3763,-2.384,-2.3831,-2.3823,-2.3799,-2.3855,-2.3882,-2.3893,-2.3756,-2.3756,-2.3755,-2.3755,0,0,-2.328,-2.3356,-2.337,-2.34,-2.3459,-2.3502,-2.3559,-2.3617,-2.3647,-2.3693,-2.3742,-2.3817,-2.3809,-2.3843,-2.3857,-2.3894,-2.3956,-2.3881,-2.3883,-2.3894,-2.4044,-2.4051,-2.4063,-2.3957,-2.3959,-2.3961,-2.404,0,-2.3352,-2.3454,-2.3476,-2.3564,-2.3615,-2.3623,-2.3673,-2.3715,-2.374,-2.3787,-2.3813,-2.3867,-2.3853,-2.3873,-2.3911,-2.3941,-2.3987,-2.3935,-2.4003,-2.4005,-2.3991,-2.4077,-2.4084,-2.4156,-2.4051,-2.4053,-2.4054,0,-2.3449,-2.3498,-2.3592,-2.3645,-2.3667,-2.3712,-2.3768,-2.3812,-2.386,-2.3875,-2.3914,-2.3924,-2.3984,-2.3957,-2.4041,-2.4005,-2.4034,-2.4053,-2.4057,-2.4064,-2.4033,-2.4087,-2.418,-2.4191,-2.4071,-2.4069,-2.4068,0,-2.3492,-2.3581,-2.3649,-2.3674,-2.3738,-2.3769,-2.3797,-2.3843,-2.3877,-2.3925,-2.3948,-2.4003,-2.4033,-2.4075,-2.41,-2.4078,-2.4182,-2.4157,-2.4196,-2.4196,-2.4218,-2.4216,-2.4318,-2.4236,-2.4236,-2.4236,-2.4236,0,-2.357,-2.3627,-2.3669,-2.3711,-2.3775,-2.38,-2.3863,-2.3891,-2.3932,-2.398,-2.399,-2.4034,-2.4064,-2.4112,-2.4132,-2.4199,-2.4212,-2.4226,-2.4231,-2.4226,-2.4224,-2.4245,-2.4241,-2.4239,-2.4238,-2.4237,-2.4237,0,-2.3628,-2.3659,-2.3733,-2.3788,-2.3803,-2.3848,-2.3895,-2.3936,-2.3961,-2.4022,-2.4037,-2.4076,-2.4134,-2.4163,-2.4235,-2.4248,-2.4324,-2.4325,-2.4308,-2.431,-2.4348,-2.4345,-2.4467,-2.4485,-2.4391,-2.4392,-2.4393,0,-2.3676,-2.3721,-2.3781,-2.3814,-2.3843,-2.3895,-2.393,-2.3956,-2.3993,-2.4051,-2.4085,-2.4144,-2.4192,-2.4285,-2.432,-2.4375,-2.4378,-2.4417,-2.4386,-2.438,-2.4379,-2.4376,-2.4381,-2.4422,-2.4423,-2.4424,-2.4425,0,-2.3759,-2.3772,-2.3822,-2.3879,-2.392,-2.3966,-2.401,-2.4037,-2.407,-2.411,-2.417,-2.4208,-2.4282,-2.434,-2.4398,-2.4427,-2.4432,-2.4434,-2.4446,-2.4442,-2.443,-2.4438,-2.4324,-2.4431,-2.4431,-2.443,-2.443,-2.4429,-2.3814,-2.3854,-2.3903,-2.3959,-2.3996,-2.4038,-2.4079,-2.411,-2.4161,-2.4223,-2.4236,-2.4299,-2.4347,-2.4426,-2.4457,-2.4507,-2.4498,-2.4516,-2.452,-2.4525,-2.4527,-2.4422,-2.4518,-2.4517,-2.4517,-2.4517,-2.4517,0,-2.3897,-2.393,-2.3981,-2.4044,-2.4088,-2.4089,-2.4139,-2.4176,-2.4232,-2.4277,-2.4324,-2.4394,-2.4451,-2.4491,-2.4549,-2.4581,-2.4585,-2.4596,-2.4594,-2.46,-2.4531,-2.4515,-2.4592,-2.4592,-2.4592,-2.4592,-2.4592,-2.4592,-2.3946,-2.4015,-2.4034,-2.4121,-2.4153,-2.4216,-2.4244,-2.4283,-2.4319,-2.4396,-2.4443,-2.4469,-2.4512,-2.4574,-2.4626,-2.4637,-2.4658,-2.4669,-2.4679,-2.4613,-2.4605,-2.4598,-2.4583,-2.4673,-2.4673,-2.4745,-2.4745,-2.4746]}]]